Time,TemperatureF,DewpointF,PressureIn,WindDirection,WindDirectionDegrees,WindSpeedMPH,WindSpeedGustMPH,Humidity,HourlyPrecipIn,Conditions,Clouds,dailyrainin,SoftwareType,DateUTC
2013-06-28 00:00:00,77.0,75.5,29.94,WNW,297,0.0,0.0,95,0.00,,---,0.00,VWS V14.01,2013-06-28 05:00:00,
2013-06-28 00:02:00,76.9,75.4,29.94,WNW,297,0.0,0.0,95,0.00,,---,0.00,VWS V14.01,2013-06-28 05:02:00,
2013-06-28 00:08:00,76.8,75.6,29.94,WNW,297,0.0,0.0,96,0.00,,---,0.00,VWS V14.01,2013-06-28 05:08:00,
2013-06-28 00:13:00,76.7,75.5,29.94,WNW,297,0.0,0.0,96,0.00,,---,0.00,VWS V14.01,2013-06-28 05:13:00,
2013-06-28 00:15:00,76.7,75.5,29.93,WNW,297,0.0,0.0,96,0.00,,---,0.00,VWS V14.01,2013-06-28 05:15:00,
2013-06-28 00:18:00,76.7,75.5,29.93,WNW,297,0.0,0.0,96,0.00,,---,0.00,VWS V14.01,2013-06-28 05:18:00,
2013-06-28 00:23:00,76.6,75.4,29.93,WNW,297,0.0,0.0,96,0.00,,---,0.00,VWS V14.01,2013-06-28 05:23:00,
2013-06-28 00:28:00,76.6,75.4,29.93,WNW,297,0.0,0.0,96,0.00,,---,0.00,VWS V14.01,2013-06-28 05:28:00,
2013-06-28 00:30:00,76.6,75.4,29.93,WNW,297,0.0,0.0,96,0.00,,---,0.00,VWS V14.01,2013-06-28 05:30:00,
2013-06-28 00:33:00,76.5,75.3,29.93,WNW,297,0.0,0.0,96,0.00,,---,0.00,VWS V14.01,2013-06-28 05:33:00,
2013-06-28 00:38:00,76.4,75.2,29.93,WNW,297,0.0,0.0,96,0.00,,---,0.00,VWS V14.01,2013-06-28 05:38:00,
2013-06-28 00:43:00,76.3,75.1,29.93,WNW,297,0.0,0.0,96,0.00,,---,0.00,VWS V14.01,2013-06-28 05:43:00,
2013-06-28 00:45:00,76.3,75.1,29.93,WNW,297,0.0,0.0,96,0.00,,---,0.00,VWS V14.01,2013-06-28 05:45:00,
2013-06-28 00:49:00,76.2,75.0,29.93,WNW,297,0.0,0.0,96,0.00,,---,0.00,VWS V14.01,2013-06-28 05:49:00,
2013-06-28 00:54:00,76.2,75.0,29.93,WNW,297,0.0,0.0,96,0.00,,---,0.00,VWS V14.01,2013-06-28 05:54:00,
2013-06-28 00:59:00,76.1,74.9,29.93,WNW,297,0.0,0.0,96,0.00,,---,0.00,VWS V14.01,2013-06-28 05:59:00,
2013-06-28 01:00:00,76.1,74.9,29.93,WNW,297,0.0,0.0,96,0.00,,---,0.00,VWS V14.01,2013-06-28 06:00:00,
2013-06-28 01:04:00,76.0,74.8,29.93,WNW,297,0.0,0.0,96,0.00,,---,0.00,VWS V14.01,2013-06-28 06:04:00,
2013-06-28 01:09:00,76.0,75.1,29.93,WNW,297,0.0,0.0,97,0.00,,---,0.00,VWS V14.01,2013-06-28 06:09:00,
2013-06-28 01:14:00,75.9,75.0,29.93,WNW,297,0.0,0.0,97,0.00,,---,0.00,VWS V14.01,2013-06-28 06:14:00,
2013-06-28 01:15:00,76.0,75.1,29.93,WNW,297,0.0,0.0,97,0.00,,---,0.00,VWS V14.01,2013-06-28 06:15:00,
2013-06-28 01:21:00,75.9,75.0,29.93,WNW,297,0.0,0.0,97,0.00,,---,0.00,VWS V14.01,2013-06-28 06:21:00,
2013-06-28 01:26:00,75.9,75.0,29.93,WNW,297,0.0,0.0,97,0.00,,---,0.00,VWS V14.01,2013-06-28 06:26:00,
2013-06-28 01:30:00,75.8,74.6,29.93,WNW,297,0.0,0.0,96,0.00,,---,0.00,VWS V14.01,2013-06-28 06:30:00,
2013-06-28 01:31:00,75.8,74.9,29.93,WNW,297,0.0,0.0,97,0.00,,---,0.00,VWS V14.01,2013-06-28 06:31:00,
2013-06-28 01:36:00,75.7,74.8,29.93,WNW,297,0.0,0.0,97,0.00,,---,0.00,VWS V14.01,2013-06-28 06:36:00,
2013-06-28 01:41:00,75.7,74.8,29.93,WNW,297,0.0,0.0,97,0.00,,---,0.00,VWS V14.01,2013-06-28 06:41:00,
2013-06-28 01:45:00,75.6,74.7,29.93,WNW,297,0.0,0.0,97,0.00,,---,0.00,VWS V14.01,2013-06-28 06:45:00,
2013-06-28 01:46:00,75.6,74.7,29.93,WNW,297,0.0,0.0,97,0.00,,---,0.00,VWS V14.01,2013-06-28 06:46:00,
2013-06-28 01:51:00,75.5,74.6,29.93,WNW,297,0.0,0.0,97,0.00,,---,0.00,VWS V14.01,2013-06-28 06:51:00,
2013-06-28 01:56:00,75.5,74.6,29.93,WNW,297,0.0,0.0,97,0.00,,---,0.00,VWS V14.01,2013-06-28 06:56:00,
2013-06-28 02:00:00,75.5,74.6,29.93,WNW,297,0.0,0.0,97,0.00,,---,0.00,VWS V14.01,2013-06-28 07:00:00,
2013-06-28 02:01:00,75.5,74.6,29.93,WNW,297,0.0,0.0,97,0.00,,---,0.00,VWS V14.01,2013-06-28 07:01:00,
2013-06-28 02:07:00,75.6,74.7,29.93,WNW,297,0.0,0.0,97,0.00,,---,0.00,VWS V14.01,2013-06-28 07:07:00,
2013-06-28 02:12:00,75.6,74.7,29.93,WNW,297,0.0,0.0,97,0.00,,---,0.00,VWS V14.01,2013-06-28 07:12:00,
2013-06-28 02:15:00,75.6,74.7,29.93,WNW,297,0.0,0.0,97,0.00,,---,0.00,VWS V14.01,2013-06-28 07:15:00,
2013-06-28 02:17:00,75.5,74.6,29.93,WNW,297,0.0,0.0,97,0.00,,---,0.00,VWS V14.01,2013-06-28 07:17:00,
2013-06-28 02:22:00,75.6,74.7,29.93,WNW,297,0.0,0.0,97,0.00,,---,0.00,VWS V14.01,2013-06-28 07:22:00,
2013-06-28 02:27:00,75.6,74.7,29.93,WNW,297,0.0,0.0,97,0.00,,---,0.00,VWS V14.01,2013-06-28 07:27:00,
2013-06-28 02:30:00,75.6,74.7,29.93,WNW,297,0.0,0.0,97,0.00,,---,0.00,VWS V14.01,2013-06-28 07:30:00,
2013-06-28 02:32:00,75.6,74.7,29.93,WNW,297,0.0,0.0,97,0.00,,---,0.00,VWS V14.01,2013-06-28 07:32:00,
2013-06-28 02:37:00,75.7,74.8,29.93,WNW,297,0.0,0.0,97,0.00,,---,0.00,VWS V14.01,2013-06-28 07:37:00,
2013-06-28 02:42:00,76.2,75.3,29.93,WNW,297,0.0,0.0,97,0.00,,---,0.00,VWS V14.01,2013-06-28 07:42:00,
2013-06-28 02:45:00,76.4,75.8,29.93,WNW,297,0.0,0.0,98,0.00,,---,0.00,VWS V14.01,2013-06-28 07:45:00,
2013-06-28 02:47:00,76.7,76.1,29.93,WNW,297,0.0,0.0,98,0.00,,---,0.00,VWS V14.01,2013-06-28 07:47:00,
2013-06-28 02:52:00,76.8,75.9,29.93,WNW,297,0.0,0.0,97,0.00,,---,0.00,VWS V14.01,2013-06-28 07:52:00,
2013-06-28 02:57:00,76.9,76.0,29.93,WNW,297,0.0,0.0,97,0.00,,---,0.00,VWS V14.01,2013-06-28 07:57:00,
2013-06-28 03:00:00,77.0,76.1,29.93,WNW,297,0.0,0.0,97,0.00,,---,0.00,VWS V14.01,2013-06-28 08:00:00,
2013-06-28 03:03:00,77.1,76.2,29.93,WNW,297,0.0,1.0,97,0.00,,---,0.00,VWS V14.01,2013-06-28 08:03:00,
2013-06-28 03:08:00,77.3,76.1,29.93,SW,231,0.0,4.0,96,0.00,,---,0.00,VWS V14.01,2013-06-28 08:08:00,
2013-06-28 03:13:00,77.4,76.2,29.93,WSW,243,1.0,6.0,96,0.00,,---,0.00,VWS V14.01,2013-06-28 08:13:00,
2013-06-28 03:15:00,77.5,76.3,29.92,SW,225,0.0,6.0,96,0.00,,---,0.00,VWS V14.01,2013-06-28 08:15:00,
2013-06-28 03:18:00,77.5,76.0,29.92,SSW,212,0.0,1.0,95,0.00,,---,0.00,VWS V14.01,2013-06-28 08:18:00,
2013-06-28 03:23:00,77.7,76.2,29.92,WSW,252,0.0,4.0,95,0.00,,---,0.00,VWS V14.01,2013-06-28 08:23:00,
2013-06-28 03:28:00,77.9,76.0,29.92,West,259,0.0,4.0,94,0.00,,---,0.00,VWS V14.01,2013-06-28 08:28:00,
2013-06-28 03:30:00,77.9,76.0,29.92,West,275,0.0,4.0,94,0.00,,---,0.00,VWS V14.01,2013-06-28 08:30:00,
2013-06-28 03:33:00,78.0,76.1,29.92,West,273,0.0,5.0,94,0.00,,---,0.00,VWS V14.01,2013-06-28 08:33:00,
2013-06-28 03:38:00,78.1,75.9,29.92,WSW,248,0.0,5.0,93,0.00,,---,0.00,VWS V14.01,2013-06-28 08:38:00,
2013-06-28 03:43:00,78.1,75.9,29.92,West,267,0.0,6.0,93,0.00,,---,0.00,VWS V14.01,2013-06-28 08:43:00,
2013-06-28 03:45:00,78.2,76.0,29.92,WSW,240,4.0,6.0,93,0.00,,---,0.00,VWS V14.01,2013-06-28 08:45:00,
2013-06-28 03:48:00,78.3,76.1,29.92,WSW,246,4.0,11.0,93,0.00,,---,0.00,VWS V14.01,2013-06-28 08:48:00,
2013-06-28 03:53:00,78.3,75.8,29.92,West,262,1.0,11.0,92,0.00,,---,0.00,VWS V14.01,2013-06-28 08:53:00,
2013-06-28 03:58:00,78.2,76.0,29.92,West,259,0.0,11.0,93,0.00,,---,0.00,VWS V14.01,2013-06-28 08:58:00,
2013-06-28 04:00:00,78.2,76.0,29.92,West,259,0.0,11.0,93,0.00,,---,0.00,VWS V14.01,2013-06-28 09:00:00,
2013-06-28 04:03:00,78.3,75.8,29.92,West,270,0.0,4.0,92,0.00,,---,0.00,VWS V14.01,2013-06-28 09:03:00,
2013-06-28 04:09:00,78.3,75.8,29.92,WNW,294,0.0,6.0,92,0.00,,---,0.00,VWS V14.01,2013-06-28 09:09:00,
2013-06-28 04:14:00,78.2,75.7,29.91,WNW,285,0.0,6.0,92,0.00,,---,0.00,VWS V14.01,2013-06-28 09:14:00,
2013-06-28 04:15:00,78.2,75.7,29.91,WNW,285,0.0,6.0,92,0.00,,---,0.00,VWS V14.01,2013-06-28 09:15:00,
2013-06-28 04:19:00,78.2,75.7,29.91,West,280,5.0,9.0,92,0.00,,---,0.00,VWS V14.01,2013-06-28 09:19:00,
2013-06-28 04:24:00,78.3,75.8,29.91,West,271,0.0,9.0,92,0.00,,---,0.00,VWS V14.01,2013-06-28 09:24:00,
2013-06-28 04:29:00,78.4,75.6,29.91,West,264,0.0,9.0,91,0.00,,---,0.00,VWS V14.01,2013-06-28 09:29:00,
2013-06-28 04:30:00,78.4,75.6,29.91,West,264,0.0,9.0,91,0.00,,---,0.00,VWS V14.01,2013-06-28 09:30:00,
2013-06-28 04:34:00,78.3,75.8,29.91,West,268,0.0,2.0,92,0.00,,---,0.00,VWS V14.01,2013-06-28 09:34:00,
2013-06-28 04:39:00,78.2,75.7,29.91,SW,235,0.0,2.0,92,0.00,,---,0.00,VWS V14.01,2013-06-28 09:39:00,
2013-06-28 04:44:00,78.2,75.4,29.91,West,266,0.0,2.0,91,0.00,,---,0.00,VWS V14.01,2013-06-28 09:44:00,
2013-06-28 04:45:00,78.2,75.4,29.91,West,266,0.0,2.0,91,0.00,,---,0.00,VWS V14.01,2013-06-28 09:45:00,
2013-06-28 04:49:00,78.2,75.4,29.91,WSW,249,0.0,5.0,91,0.00,,---,0.00,VWS V14.01,2013-06-28 09:49:00,
2013-06-28 04:54:00,78.1,75.3,29.91,SW,234,0.0,10.0,91,0.00,,---,0.00,VWS V14.01,2013-06-28 09:54:00,
2013-06-28 05:00:00,78.0,75.2,29.90,West,262,0.0,0.0,91,0.00,,---,0.00,VWS V14.01,2013-06-28 10:00:00,
2013-06-28 05:05:00,77.9,75.4,29.90,West,269,0.0,1.0,92,0.00,,---,0.00,VWS V14.01,2013-06-28 10:05:00,
2013-06-28 05:10:00,78.0,75.5,29.90,West,265,0.0,5.0,92,0.00,,---,0.00,VWS V14.01,2013-06-28 10:10:00,
2013-06-28 05:15:00,78.0,75.5,29.90,West,259,2.0,4.0,92,0.00,,---,0.00,VWS V14.01,2013-06-28 10:15:00,
2013-06-28 05:20:00,78.0,75.2,29.90,West,272,0.0,4.0,91,0.00,,---,0.00,VWS V14.01,2013-06-28 10:20:00,
2013-06-28 05:25:00,78.0,75.2,29.90,WNW,283,0.0,5.0,91,0.00,,---,0.00,VWS V14.01,2013-06-28 10:25:00,
2013-06-28 05:30:00,77.9,75.4,29.91,WNW,283,0.0,0.0,92,0.00,,---,0.00,VWS V14.01,2013-06-28 10:30:00,
2013-06-28 05:35:00,77.7,75.2,29.91,WNW,284,0.0,1.0,92,0.00,,---,0.00,VWS V14.01,2013-06-28 10:35:00,
2013-06-28 05:40:00,77.6,75.1,29.91,WNW,284,0.0,1.0,92,0.00,,---,0.00,VWS V14.01,2013-06-28 10:40:00,
2013-06-28 05:45:00,77.4,74.9,29.92,WNW,283,0.0,0.0,92,0.00,,---,0.00,VWS V14.01,2013-06-28 10:45:00,
2013-06-28 05:50:00,77.3,75.1,29.92,WNW,283,0.0,0.0,93,0.00,,---,0.00,VWS V14.01,2013-06-28 10:50:00,
2013-06-28 05:56:00,77.1,74.9,29.92,WNW,290,0.0,1.0,93,0.00,,---,0.00,VWS V14.01,2013-06-28 10:56:00,
2013-06-28 06:00:00,76.9,74.7,29.92,WNW,290,0.0,1.0,93,0.00,,---,0.00,VWS V14.01,2013-06-28 11:00:00,
2013-06-28 06:01:00,76.9,74.7,29.92,WNW,291,0.0,0.0,93,0.00,,---,0.00,VWS V14.01,2013-06-28 11:01:00,
2013-06-28 06:06:00,76.7,74.5,29.92,WNW,291,0.0,0.0,93,0.00,,---,0.00,VWS V14.01,2013-06-28 11:06:00,
2013-06-28 06:11:00,76.5,74.7,29.92,WNW,291,0.0,0.0,94,0.00,,---,0.00,VWS V14.01,2013-06-28 11:11:00,
2013-06-28 06:15:00,76.4,74.6,29.92,WNW,291,0.0,0.0,94,0.00,,---,0.00,VWS V14.01,2013-06-28 11:15:00,
2013-06-28 06:16:00,76.4,74.6,29.92,WNW,291,0.0,0.0,94,0.00,,---,0.00,VWS V14.01,2013-06-28 11:16:00,
2013-06-28 06:21:00,76.3,74.8,29.92,WNW,291,0.0,0.0,95,0.00,,---,0.00,VWS V14.01,2013-06-28 11:21:00,
2013-06-28 06:26:00,76.2,74.7,29.92,WNW,291,0.0,0.0,95,0.00,,---,0.00,VWS V14.01,2013-06-28 11:26:00,
2013-06-28 06:30:00,76.3,74.8,29.93,WNW,291,0.0,0.0,95,0.00,,---,0.00,VWS V14.01,2013-06-28 11:30:00,
2013-06-28 06:31:00,76.4,74.9,29.93,WNW,286,0.0,1.0,95,0.00,,---,0.00,VWS V14.01,2013-06-28 11:31:00,
2013-06-28 06:36:00,76.6,75.1,29.93,WNW,286,0.0,1.0,95,0.00,,---,0.00,VWS V14.01,2013-06-28 11:36:00,
2013-06-28 06:41:00,76.8,75.3,29.93,WNW,286,0.0,1.0,95,0.00,,---,0.00,VWS V14.01,2013-06-28 11:41:00,
2013-06-28 06:42:00,76.9,75.4,29.93,WNW,286,0.0,1.0,95,0.00,,---,0.00,VWS V14.01,2013-06-28 11:42:00,
2013-06-28 06:45:00,76.9,75.4,29.92,WNW,286,0.0,2.0,95,0.00,,---,0.00,VWS V14.01,2013-06-28 11:45:00,
2013-06-28 06:47:00,77.0,75.1,29.92,WNW,286,0.0,1.0,94,0.00,,---,0.00,VWS V14.01,2013-06-28 11:47:00,
2013-06-28 06:52:00,77.3,75.4,29.92,NW,324,0.0,1.0,94,0.00,,---,0.00,VWS V14.01,2013-06-28 11:52:00,
2013-06-28 06:57:00,77.4,75.5,29.92,NNW,328,0.0,4.0,94,0.00,,---,0.00,VWS V14.01,2013-06-28 11:57:00,
2013-06-28 07:00:00,77.5,75.6,29.92,NNW,328,0.0,4.0,94,0.00,,---,0.00,VWS V14.01,2013-06-28 12:00:00,
2013-06-28 07:02:00,77.6,75.7,29.92,NNW,346,0.0,1.0,94,0.00,,---,0.00,VWS V14.01,2013-06-28 12:02:00,
2013-06-28 07:07:00,77.8,75.9,29.92,North,5,0.0,5.0,94,0.00,,---,0.00,VWS V14.01,2013-06-28 12:07:00,
2013-06-28 07:13:00,78.0,75.8,29.92,North,355,4.0,5.0,93,0.00,,---,0.00,VWS V14.01,2013-06-28 12:13:00,
2013-06-28 07:15:00,78.0,75.8,29.92,WNW,286,2.0,5.0,93,0.00,,---,0.00,VWS V14.01,2013-06-28 12:15:00,
2013-06-28 07:18:00,78.2,76.0,29.92,WNW,287,0.0,4.0,93,0.00,,---,0.00,VWS V14.01,2013-06-28 12:18:00,
2013-06-28 07:23:00,78.4,76.2,29.92,NW,304,0.0,4.0,93,0.00,,---,0.00,VWS V14.01,2013-06-28 12:23:00,
2013-06-28 07:28:00,78.7,76.5,29.92,WNW,286,0.0,4.0,93,0.00,,---,0.00,VWS V14.01,2013-06-28 12:28:00,
2013-06-28 07:30:00,78.7,76.5,29.93,WNW,286,0.0,4.0,93,0.00,,---,0.00,VWS V14.01,2013-06-28 12:30:00,
2013-06-28 07:33:00,78.9,76.4,29.93,WNW,284,0.0,11.0,92,0.00,,---,0.00,VWS V14.01,2013-06-28 12:33:00,
2013-06-28 07:38:00,79.2,76.3,29.93,West,266,5.0,11.0,91,0.00,,---,0.00,VWS V14.01,2013-06-28 12:38:00,
2013-06-28 07:43:00,79.4,76.6,29.93,WSW,254,0.0,11.0,91,0.00,,---,0.00,VWS V14.01,2013-06-28 12:43:00,
2013-06-28 07:45:00,79.5,76.3,29.93,WSW,254,0.0,11.0,90,0.00,,---,0.00,VWS V14.01,2013-06-28 12:45:00,
2013-06-28 07:48:00,79.6,76.8,29.93,West,265,0.0,4.0,91,0.00,,---,0.00,VWS V14.01,2013-06-28 12:48:00,
2013-06-28 07:53:00,79.8,76.3,29.93,North,349,0.0,6.0,89,0.00,,---,0.00,VWS V14.01,2013-06-28 12:53:00,
2013-06-28 07:58:00,79.9,76.4,29.94,WNW,294,0.0,13.0,89,0.00,,---,0.00,VWS V14.01,2013-06-28 12:58:00,
2013-06-28 08:00:00,79.9,76.4,29.94,WNW,288,4.0,13.0,89,0.00,,---,0.00,VWS V14.01,2013-06-28 13:00:00,
2013-06-28 08:03:00,80.1,76.2,29.94,NW,325,0.0,9.0,88,0.00,,---,0.00,VWS V14.01,2013-06-28 13:03:00,
2013-06-28 08:08:00,80.2,76.7,29.94,NW,304,0.0,9.0,89,0.00,,---,0.00,VWS V14.01,2013-06-28 13:08:00,
2013-06-28 08:13:00,80.3,76.1,29.95,West,281,0.0,9.0,87,0.00,,---,0.00,VWS V14.01,2013-06-28 13:13:00,
2013-06-28 08:15:00,80.3,76.1,29.95,NW,305,0.0,9.0,87,0.00,,---,0.00,VWS V14.01,2013-06-28 13:15:00,
2013-06-28 08:18:00,80.5,76.3,29.95,West,281,0.0,0.0,87,0.00,,---,0.00,VWS V14.01,2013-06-28 13:18:00,
2013-06-28 08:24:00,80.7,76.5,29.95,WSW,251,0.0,11.0,87,0.00,,---,0.00,VWS V14.01,2013-06-28 13:24:00,
2013-06-28 08:29:00,80.9,76.3,29.95,NW,311,9.0,11.0,86,0.00,,---,0.00,VWS V14.01,2013-06-28 13:29:00,
2013-06-28 08:30:00,81.0,76.1,29.95,West,271,6.0,11.0,85,0.00,,---,0.00,VWS V14.01,2013-06-28 13:30:00,
2013-06-28 08:34:00,81.2,76.3,29.95,West,267,0.0,7.0,85,0.00,,---,0.00,VWS V14.01,2013-06-28 13:34:00,
2013-06-28 08:39:00,81.5,76.6,29.95,WSW,252,6.0,11.0,85,0.00,,---,0.00,VWS V14.01,2013-06-28 13:39:00,
2013-06-28 08:44:00,82.1,76.8,29.95,NW,312,5.0,11.0,84,0.00,,---,0.00,VWS V14.01,2013-06-28 13:44:00,
2013-06-28 08:45:00,82.1,76.8,29.95,NW,308,1.0,11.0,84,0.00,,---,0.00,VWS V14.01,2013-06-28 13:45:00,
2013-06-28 08:49:00,82.5,76.4,29.95,NW,311,0.0,7.0,82,0.00,,---,0.00,VWS V14.01,2013-06-28 13:49:00,
2013-06-28 08:54:00,82.9,76.8,29.95,West,277,0.0,7.0,82,0.00,,---,0.00,VWS V14.01,2013-06-28 13:54:00,
2013-06-28 08:59:00,83.0,76.2,29.93,WSW,252,0.0,9.0,80,0.00,,---,0.00,VWS V14.01,2013-06-28 13:59:00,
2013-06-28 09:00:00,83.0,76.2,29.93,WNW,297,0.0,9.0,80,0.00,,---,0.00,VWS V14.01,2013-06-28 14:00:00,
2013-06-28 09:04:00,83.1,76.3,29.93,WNW,301,4.0,16.0,80,0.00,,---,0.00,VWS V14.01,2013-06-28 14:04:00,
2013-06-28 09:09:00,83.2,76.8,29.93,WSW,253,0.0,16.0,81,0.00,,---,0.00,VWS V14.01,2013-06-28 14:09:00,
2013-06-28 09:14:00,83.3,76.5,29.93,North,360,0.0,0.0,80,0.00,,---,0.00,VWS V14.01,2013-06-28 14:14:00,
2013-06-28 09:15:00,83.3,76.5,29.93,North,360,0.0,16.0,80,0.00,,---,0.00,VWS V14.01,2013-06-28 14:15:00,
2013-06-28 09:20:00,83.8,77.3,29.93,NNW,327,8.0,8.0,81,0.00,,---,0.00,VWS V14.01,2013-06-28 14:20:00,
2013-06-28 09:25:00,84.2,77.0,29.93,WNW,298,0.0,8.0,79,0.00,,---,0.00,VWS V14.01,2013-06-28 14:25:00,
2013-06-28 09:30:00,84.7,77.1,29.93,NNW,330,0.0,0.0,78,0.00,,---,0.00,VWS V14.01,2013-06-28 14:30:00,
2013-06-28 09:35:00,84.7,76.3,29.93,WNW,303,0.0,6.0,76,0.00,,---,0.00,VWS V14.01,2013-06-28 14:35:00,
2013-06-28 09:40:00,85.0,77.0,29.93,NNW,327,0.0,6.0,77,0.00,,---,0.00,VWS V14.01,2013-06-28 14:40:00,
2013-06-28 09:45:00,85.1,76.3,29.93,West,281,3.0,9.0,75,0.00,,---,0.00,VWS V14.01,2013-06-28 14:45:00,
2013-06-28 09:50:00,85.2,76.8,29.93,NNW,344,0.0,12.0,76,0.00,,---,0.00,VWS V14.01,2013-06-28 14:50:00,
2013-06-28 09:55:00,85.8,77.4,29.93,WNW,288,0.0,12.0,76,0.00,,---,0.00,VWS V14.01,2013-06-28 14:55:00,
2013-06-28 10:00:00,85.9,77.1,29.93,NW,306,1.0,4.0,75,0.00,,---,0.00,VWS V14.01,2013-06-28 15:00:00,
2013-06-28 10:05:00,86.1,76.8,29.93,WNW,292,0.0,11.0,74,0.00,,---,0.00,VWS V14.01,2013-06-28 15:05:00,
2013-06-28 10:10:00,86.3,76.6,29.93,NW,316,0.0,11.0,73,0.00,,---,0.00,VWS V14.01,2013-06-28 15:10:00,
2013-06-28 10:15:00,87.0,78.1,29.92,West,272,0.0,0.0,75,0.00,,---,0.00,VWS V14.01,2013-06-28 15:15:00,
2013-06-28 10:21:00,87.3,76.8,29.92,WNW,300,0.0,13.0,71,0.00,,---,0.00,VWS V14.01,2013-06-28 15:21:00,
2013-06-28 10:26:00,87.0,76.5,29.92,SW,234,9.0,14.0,71,0.00,,---,0.00,VWS V14.01,2013-06-28 15:26:00,
2013-06-28 10:30:00,86.8,75.8,29.92,West,267,1.0,14.0,70,0.00,,---,0.00,VWS V14.01,2013-06-28 15:30:00,
2013-06-28 10:31:00,86.8,76.3,29.92,WNW,283,0.0,1.0,71,0.00,,---,0.00,VWS V14.01,2013-06-28 15:31:00,
2013-06-28 10:36:00,86.9,77.2,29.92,West,274,6.0,11.0,73,0.00,,---,0.00,VWS V14.01,2013-06-28 15:36:00,
2013-06-28 10:41:00,87.1,77.0,29.92,West,273,0.0,12.0,72,0.00,,---,0.00,VWS V14.01,2013-06-28 15:41:00,
2013-06-28 10:45:00,86.9,76.8,29.91,WNW,284,0.0,12.0,72,0.00,,---,0.00,VWS V14.01,2013-06-28 15:45:00,
2013-06-28 10:46:00,87.1,77.4,29.91,WNW,284,0.0,0.0,73,0.00,,---,0.00,VWS V14.01,2013-06-28 15:46:00,
2013-06-28 10:51:00,87.5,77.8,29.91,WSW,250,0.0,7.0,73,0.00,,---,0.00,VWS V14.01,2013-06-28 15:51:00,
2013-06-28 10:56:00,86.7,76.2,29.91,West,271,6.0,14.0,71,0.00,,---,0.00,VWS V14.01,2013-06-28 15:56:00,
2013-06-28 11:00:00,86.5,76.8,29.91,West,271,0.0,14.0,73,0.00,,---,0.00,VWS V14.01,2013-06-28 16:00:00,
2013-06-28 11:02:00,86.6,77.3,29.91,West,269,4.0,9.0,74,0.00,,---,0.00,VWS V14.01,2013-06-28 16:02:00,
2013-06-28 11:07:00,86.6,77.7,29.91,WNW,292,0.0,9.0,75,0.00,,---,0.00,VWS V14.01,2013-06-28 16:07:00,
2013-06-28 11:12:00,86.9,76.8,29.91,West,264,0.0,9.0,72,0.00,,---,0.00,VWS V14.01,2013-06-28 16:12:00,
2013-06-28 11:15:00,87.1,77.4,29.91,WSW,252,0.0,9.0,73,0.00,,---,0.00,VWS V14.01,2013-06-28 16:15:00,
2013-06-28 11:17:00,87.1,77.8,29.91,West,273,0.0,4.0,74,0.00,,---,0.00,VWS V14.01,2013-06-28 16:17:00,
2013-06-28 11:22:00,87.2,77.9,29.91,West,265,0.0,5.0,74,0.00,,---,0.00,VWS V14.01,2013-06-28 16:22:00,
2013-06-28 11:27:00,87.4,76.8,29.91,West,267,3.0,13.0,71,0.00,,---,0.00,VWS V14.01,2013-06-28 16:27:00,
2013-06-28 11:30:00,87.3,78.0,29.91,WNW,296,0.0,13.0,74,0.00,,---,0.00,VWS V14.01,2013-06-28 16:30:00,
2013-06-28 11:32:00,87.4,77.3,29.91,WNW,296,0.0,0.0,72,0.00,,---,0.00,VWS V14.01,2013-06-28 16:32:00,
2013-06-28 11:37:00,87.4,76.4,29.91,NW,315,0.0,7.0,70,0.00,,---,0.00,VWS V14.01,2013-06-28 16:37:00,
2013-06-28 11:42:00,87.5,77.4,29.91,NW,305,0.0,12.0,72,0.00,,---,0.00,VWS V14.01,2013-06-28 16:42:00,
2013-06-28 11:45:00,87.5,76.9,29.91,West,275,0.0,12.0,71,0.00,,---,0.00,VWS V14.01,2013-06-28 16:45:00,
2013-06-28 11:47:00,87.5,77.4,29.91,NW,317,0.0,5.0,72,0.00,,---,0.00,VWS V14.01,2013-06-28 16:47:00,
2013-06-28 11:52:00,87.5,77.4,29.91,WNW,295,0.0,5.0,72,0.00,,---,0.00,VWS V14.01,2013-06-28 16:52:00,
2013-06-28 11:57:00,87.3,77.2,29.91,West,275,0.0,6.0,72,0.00,,---,0.00,VWS V14.01,2013-06-28 16:57:00,
2013-06-28 12:00:00,87.4,77.3,29.91,West,275,0.0,6.0,72,0.00,,---,0.00,VWS V14.01,2013-06-28 17:00:00,
2013-06-28 12:02:00,87.5,77.4,29.91,WSW,253,5.0,5.0,72,0.00,,---,0.00,VWS V14.01,2013-06-28 17:02:00,
2013-06-28 12:08:00,87.5,77.4,29.91,WSW,249,0.0,6.0,72,0.00,,---,0.00,VWS V14.01,2013-06-28 17:08:00,
2013-06-28 12:13:00,88.3,78.1,29.91,NW,323,0.0,10.0,72,0.00,,---,0.00,VWS V14.01,2013-06-28 17:13:00,
2013-06-28 12:15:00,88.5,78.3,29.90,NNW,328,0.0,10.0,72,0.00,,---,0.00,VWS V14.01,2013-06-28 17:15:00,
2013-06-28 12:18:00,89.0,78.8,29.90,NW,307,0.0,1.0,72,0.00,,---,0.00,VWS V14.01,2013-06-28 17:18:00,
2013-06-28 12:23:00,89.3,77.4,29.90,West,279,7.0,10.0,68,0.00,,---,0.00,VWS V14.01,2013-06-28 17:23:00,
2013-06-28 12:28:00,89.6,77.2,29.90,West,271,4.0,10.0,67,0.00,,---,0.00,VWS V14.01,2013-06-28 17:28:00,
2013-06-28 12:30:00,89.5,76.7,29.90,West,277,0.0,10.0,66,0.00,,---,0.00,VWS V14.01,2013-06-28 17:30:00,
2013-06-28 12:33:00,89.7,77.3,29.90,West,266,1.0,6.0,67,0.00,,---,0.00,VWS V14.01,2013-06-28 17:33:00,
2013-06-28 12:38:00,89.6,77.2,29.90,West,267,0.0,12.0,67,0.00,,---,0.00,VWS V14.01,2013-06-28 17:38:00,
2013-06-28 12:43:00,89.7,77.7,29.89,WNW,288,0.0,12.0,68,0.00,,---,0.00,VWS V14.01,2013-06-28 17:43:00,
2013-06-28 12:45:00,89.9,77.9,29.89,WNW,286,0.0,12.0,68,0.00,,---,0.00,VWS V14.01,2013-06-28 17:45:00,
2013-06-28 12:48:00,90.1,77.7,29.89,WNW,299,0.0,6.0,67,0.00,,---,0.00,VWS V14.01,2013-06-28 17:48:00,
2013-06-28 12:53:00,90.3,76.9,29.89,West,275,0.0,10.0,65,0.00,,---,0.00,VWS V14.01,2013-06-28 17:53:00,
2013-06-28 12:58:00,89.6,76.7,29.89,WNW,287,0.0,10.0,66,0.00,,---,0.00,VWS V14.01,2013-06-28 17:58:00,
2013-06-28 13:00:00,89.6,76.7,29.89,WNW,287,0.0,10.0,66,0.00,,---,0.00,VWS V14.01,2013-06-28 18:00:00,
2013-06-28 13:03:00,89.9,77.5,29.89,West,280,0.0,1.0,67,0.00,,---,0.00,VWS V14.01,2013-06-28 18:03:00,
2013-06-28 13:08:00,90.0,78.0,29.89,West,279,0.0,2.0,68,0.00,,---,0.00,VWS V14.01,2013-06-28 18:08:00,
2013-06-28 13:13:00,90.5,78.1,29.89,SW,233,0.0,2.0,67,0.00,,---,0.00,VWS V14.01,2013-06-28 18:13:00,
2013-06-28 13:15:00,90.6,77.2,29.89,WSW,239,0.0,2.0,65,0.00,,---,0.00,VWS V14.01,2013-06-28 18:15:00,
2013-06-28 13:18:00,90.7,79.6,29.89,West,272,0.0,8.0,70,0.00,,---,0.00,VWS V14.01,2013-06-28 18:18:00,
2013-06-28 13:24:00,91.3,77.4,29.89,West,275,0.0,8.0,64,0.00,,---,0.00,VWS V14.01,2013-06-28 18:24:00,
2013-06-28 13:29:00,91.3,77.4,29.88,NNW,347,0.0,8.0,64,0.00,,---,0.00,VWS V14.01,2013-06-28 18:29:00,
2013-06-28 13:30:00,91.3,77.4,29.88,NNW,337,0.0,8.0,64,0.00,,---,0.00,VWS V14.01,2013-06-28 18:30:00,
2013-06-28 13:34:00,91.3,77.9,29.88,SW,231,0.0,0.0,65,0.00,,---,0.00,VWS V14.01,2013-06-28 18:34:00,
2013-06-28 13:39:00,91.0,77.6,29.88,West,279,0.0,0.0,65,0.00,,---,0.00,VWS V14.01,2013-06-28 18:39:00,
2013-06-28 13:44:00,91.1,78.2,29.88,West,277,0.0,6.0,66,0.00,,---,0.00,VWS V14.01,2013-06-28 18:44:00,
2013-06-28 13:45:00,91.1,78.2,29.88,West,278,0.0,6.0,66,0.00,,---,0.00,VWS V14.01,2013-06-28 18:45:00,
2013-06-28 13:49:00,91.8,78.4,29.88,West,269,0.0,1.0,65,0.00,,---,0.00,VWS V14.01,2013-06-28 18:49:00,
2013-06-28 13:54:00,91.7,77.8,29.88,West,261,0.0,6.0,64,0.00,,---,0.00,VWS V14.01,2013-06-28 18:54:00,
2013-06-28 13:59:00,91.6,76.7,29.87,WSW,254,3.0,10.0,62,0.00,,---,0.00,VWS V14.01,2013-06-28 18:59:00,
2013-06-28 14:00:00,91.6,76.7,29.87,WSW,254,3.0,10.0,62,0.00,,---,0.00,VWS V14.01,2013-06-28 19:00:00,
2013-06-28 14:04:00,91.5,76.7,29.87,WNW,288,0.0,5.0,62,0.00,,---,0.00,VWS V14.01,2013-06-28 19:04:00,
2013-06-28 14:09:00,91.9,78.0,29.87,WSW,245,5.0,5.0,64,0.00,,---,0.00,VWS V14.01,2013-06-28 19:09:00,
2013-06-28 14:14:00,91.5,77.1,29.87,WSW,254,5.0,7.0,63,0.00,,---,0.00,VWS V14.01,2013-06-28 19:14:00,
2013-06-28 14:15:00,91.5,77.1,29.87,WNW,291,7.0,7.0,63,0.00,,---,0.00,VWS V14.01,2013-06-28 19:15:00,
2013-06-28 14:19:00,91.5,76.7,29.87,West,270,6.0,7.0,62,0.00,,---,0.00,VWS V14.01,2013-06-28 19:19:00,
2013-06-28 14:24:00,90.9,76.1,29.87,WSW,242,0.0,7.0,62,0.00,,---,0.00,VWS V14.01,2013-06-28 19:24:00,
2013-06-28 14:29:00,91.9,78.0,29.87,West,270,0.0,0.0,64,0.00,,---,0.00,VWS V14.01,2013-06-28 19:29:00,
2013-06-28 14:30:00,91.8,79.3,29.87,West,270,0.0,7.0,67,0.00,,---,0.00,VWS V14.01,2013-06-28 19:30:00,
2013-06-28 14:34:00,92.5,76.6,29.87,WSW,247,7.0,9.0,60,0.00,,---,0.00,VWS V14.01,2013-06-28 19:34:00,
2013-06-28 14:40:00,92.4,78.9,29.87,WNW,284,0.0,10.0,65,0.00,,---,0.00,VWS V14.01,2013-06-28 19:40:00,
2013-06-28 14:45:00,92.0,75.1,29.86,West,270,0.0,0.0,58,0.00,,---,0.00,VWS V14.01,2013-06-28 19:45:00,
2013-06-28 14:50:00,92.3,76.9,29.86,West,263,0.0,1.0,61,0.00,,---,0.00,VWS V14.01,2013-06-28 19:50:00,
2013-06-28 14:55:00,92.0,75.6,29.86,WSW,250,5.0,10.0,59,0.00,,---,0.00,VWS V14.01,2013-06-28 19:55:00,
2013-06-28 15:00:00,91.3,77.4,29.85,West,267,0.0,0.0,64,0.00,,---,0.00,VWS V14.01,2013-06-28 20:00:00,
2013-06-28 15:05:00,92.1,77.2,29.85,West,278,0.0,10.0,62,0.00,,---,0.00,VWS V14.01,2013-06-28 20:05:00,
2013-06-28 15:10:00,91.9,77.5,29.85,WSW,237,0.0,10.0,63,0.00,,---,0.00,VWS V14.01,2013-06-28 20:10:00,
2013-06-28 15:15:00,91.8,77.9,29.84,West,278,4.0,6.0,64,0.00,,---,0.00,VWS V14.01,2013-06-28 20:15:00,
2013-06-28 15:20:00,92.2,76.8,29.84,West,264,3.0,10.0,61,0.00,,---,0.00,VWS V14.01,2013-06-28 20:20:00,
2013-06-28 15:25:00,91.7,76.8,29.84,West,261,0.0,10.0,62,0.00,,---,0.00,VWS V14.01,2013-06-28 20:25:00,
2013-06-28 15:30:00,92.2,75.3,29.84,WSW,257,6.0,11.0,58,0.00,,---,0.00,VWS V14.01,2013-06-28 20:30:00,
2013-06-28 15:35:00,92.3,77.4,29.84,WNW,299,4.0,11.0,62,0.00,,---,0.00,VWS V14.01,2013-06-28 20:35:00,
2013-06-28 15:40:00,92.5,74.5,29.84,West,266,5.0,11.0,56,0.00,,---,0.00,VWS V14.01,2013-06-28 20:40:00,
2013-06-28 15:45:00,92.1,75.7,29.83,WNW,286,0.0,6.0,59,0.00,,---,0.00,VWS V14.01,2013-06-28 20:45:00,
2013-06-28 15:50:00,92.3,76.4,29.83,West,277,0.0,12.0,60,0.00,,---,0.00,VWS V14.01,2013-06-28 20:50:00,
2013-06-28 15:56:00,92.3,75.4,29.83,WSW,255,8.0,13.0,58,0.00,,---,0.00,VWS V14.01,2013-06-28 20:56:00,
2013-06-28 16:00:00,92.4,77.0,29.82,SW,229,0.0,13.0,61,0.00,,---,0.00,VWS V14.01,2013-06-28 21:00:00,
2013-06-28 16:01:00,92.6,76.2,29.82,SSW,213,0.0,0.0,59,0.00,,---,0.00,VWS V14.01,2013-06-28 21:01:00,
2013-06-28 16:06:00,92.9,75.4,29.82,West,265,1.0,12.0,57,0.00,,---,0.00,VWS V14.01,2013-06-28 21:06:00,
2013-06-28 16:11:00,92.4,76.5,29.82,WSW,242,6.0,12.0,60,0.00,,---,0.00,VWS V14.01,2013-06-28 21:11:00,
2013-06-28 16:15:00,91.7,76.3,29.82,West,274,1.0,12.0,61,0.00,,---,0.00,VWS V14.01,2013-06-28 21:15:00,
2013-06-28 16:16:00,91.6,75.8,29.82,West,265,0.0,6.0,60,0.00,,---,0.00,VWS V14.01,2013-06-28 21:16:00,
2013-06-28 16:21:00,91.4,76.1,29.82,West,269,0.0,6.0,61,0.00,,---,0.00,VWS V14.01,2013-06-28 21:21:00,
2013-06-28 16:26:00,91.5,76.2,29.82,West,268,0.0,9.0,61,0.00,,---,0.00,VWS V14.01,2013-06-28 21:26:00,
2013-06-28 16:30:00,91.8,75.9,29.81,West,270,0.0,9.0,60,0.00,,---,0.00,VWS V14.01,2013-06-28 21:30:00,
2013-06-28 16:31:00,92.1,76.7,29.81,NNW,338,1.0,1.0,61,0.00,,---,0.00,VWS V14.01,2013-06-28 21:31:00,
2013-06-28 16:36:00,92.7,76.8,29.81,WSW,257,0.0,1.0,60,0.00,,---,0.00,VWS V14.01,2013-06-28 21:36:00,
2013-06-28 16:41:00,93.0,77.6,29.81,West,269,0.0,7.0,61,0.00,,---,0.00,VWS V14.01,2013-06-28 21:41:00,
2013-06-28 16:45:00,93.0,77.6,29.81,WSW,252,3.0,7.0,61,0.00,,---,0.00,VWS V14.01,2013-06-28 21:45:00,
2013-06-28 16:46:00,92.9,75.9,29.81,WSW,256,1.0,10.0,58,0.00,,---,0.00,VWS V14.01,2013-06-28 21:46:00,
2013-06-28 16:51:00,92.7,77.3,29.81,WNW,294,0.0,10.0,61,0.00,,---,0.00,VWS V14.01,2013-06-28 21:51:00,
2013-06-28 16:56:00,92.7,76.3,29.81,WNW,294,0.0,10.0,59,0.00,,---,0.00,VWS V14.01,2013-06-28 21:56:00,
2013-06-28 17:00:00,92.6,76.2,29.81,NW,320,0.0,10.0,59,0.00,,---,0.00,VWS V14.01,2013-06-28 22:00:00,
2013-06-28 17:01:00,92.6,78.2,29.81,NW,308,3.0,3.0,63,0.00,,---,0.00,VWS V14.01,2013-06-28 22:01:00,
2013-06-28 17:06:00,92.1,76.7,29.81,WNW,286,0.0,6.0,61,0.00,,---,0.00,VWS V14.01,2013-06-28 22:06:00,
2013-06-28 17:11:00,91.6,76.2,29.81,West,274,2.0,10.0,61,0.00,,---,0.00,VWS V14.01,2013-06-28 22:11:00,
2013-06-28 17:15:00,91.6,76.2,29.81,West,273,0.0,10.0,61,0.00,,---,0.00,VWS V14.01,2013-06-28 22:15:00,
2013-06-28 17:16:00,91.8,76.4,29.81,West,279,0.0,5.0,61,0.00,,---,0.00,VWS V14.01,2013-06-28 22:16:00,
2013-06-28 17:21:00,92.3,76.4,29.81,West,280,0.0,5.0,60,0.00,,---,0.00,VWS V14.01,2013-06-28 22:21:00,
2013-06-28 17:26:00,92.6,77.2,29.81,NNE,30,0.0,5.0,61,0.00,,---,0.00,VWS V14.01,2013-06-28 22:26:00,
2013-06-28 17:28:00,92.5,76.1,29.81,NNE,30,0.0,5.0,59,0.00,,---,0.00,VWS V14.01,2013-06-28 22:28:00,
2013-06-28 17:30:00,92.5,76.6,29.81,NNE,30,0.0,5.0,60,0.00,,---,0.00,VWS V14.01,2013-06-28 22:30:00,
2013-06-28 17:33:00,92.7,77.3,29.81,West,271,2.0,5.0,61,0.00,,---,0.00,VWS V14.01,2013-06-28 22:33:00,
2013-06-28 17:38:00,92.2,77.3,29.81,West,266,1.0,6.0,62,0.00,,---,0.00,VWS V14.01,2013-06-28 22:38:00,
2013-06-28 17:43:00,92.0,77.6,29.81,West,271,1.0,6.0,63,0.00,,---,0.00,VWS V14.01,2013-06-28 22:43:00,
2013-06-28 17:45:00,92.1,77.2,29.81,West,273,1.0,6.0,62,0.00,,---,0.00,VWS V14.01,2013-06-28 22:45:00,
2013-06-28 17:48:00,91.9,76.5,29.81,West,269,7.0,7.0,61,0.00,,---,0.00,VWS V14.01,2013-06-28 22:48:00,
2013-06-28 17:53:00,91.5,76.2,29.81,West,266,0.0,11.0,61,0.00,,---,0.00,VWS V14.01,2013-06-28 22:53:00,
2013-06-28 17:58:00,91.3,76.5,29.80,WSW,251,0.0,11.0,62,0.00,,---,0.00,VWS V14.01,2013-06-28 22:58:00,
2013-06-28 18:00:00,91.3,75.5,29.80,WNW,286,1.0,11.0,60,0.00,,---,0.00,VWS V14.01,2013-06-28 23:00:00,
2013-06-28 18:04:00,91.0,76.2,29.80,WNW,294,5.0,8.0,62,0.00,,---,0.00,VWS V14.01,2013-06-28 23:04:00,
2013-06-28 18:09:00,90.7,76.4,29.80,West,276,0.0,8.0,63,0.00,,---,0.00,VWS V14.01,2013-06-28 23:09:00,
2013-06-28 18:14:00,90.5,76.7,29.79,SW,224,0.0,8.0,64,0.00,,---,0.00,VWS V14.01,2013-06-28 23:14:00,
2013-06-28 18:15:00,90.5,76.2,29.79,WSW,249,6.0,8.0,63,0.00,,---,0.00,VWS V14.01,2013-06-28 23:15:00,
2013-06-28 18:19:00,90.1,75.8,29.79,West,279,3.0,8.0,63,0.00,,---,0.00,VWS V14.01,2013-06-28 23:19:00,
2013-06-28 18:24:00,89.8,76.0,29.79,West,261,0.0,8.0,64,0.00,,---,0.00,VWS V14.01,2013-06-28 23:24:00,
2013-06-28 18:29:00,89.6,76.3,29.79,WSW,257,4.0,9.0,65,0.00,,---,0.00,VWS V14.01,2013-06-28 23:29:00,
2013-06-28 18:30:00,89.6,76.3,29.79,WSW,257,3.0,9.0,65,0.00,,---,0.00,VWS V14.01,2013-06-28 23:30:00,
2013-06-28 18:34:00,89.4,75.6,29.79,SW,225,0.0,7.0,64,0.00,,---,0.00,VWS V14.01,2013-06-28 23:34:00,
2013-06-28 18:39:00,89.3,76.0,29.79,WSW,258,0.0,7.0,65,0.00,,---,0.00,VWS V14.01,2013-06-28 23:39:00,
2013-06-28 18:44:00,89.4,76.1,29.79,West,276,0.0,7.0,65,0.00,,---,0.00,VWS V14.01,2013-06-28 23:44:00,
2013-06-28 18:45:00,89.4,76.1,29.79,West,276,0.0,7.0,65,0.00,,---,0.00,VWS V14.01,2013-06-28 23:45:00,
2013-06-28 18:49:00,89.4,76.1,29.79,WSW,256,0.0,0.0,65,0.00,,---,0.00,VWS V14.01,2013-06-28 23:49:00,
2013-06-28 18:54:00,89.4,76.1,29.79,WSW,257,0.0,1.0,65,0.00,,---,0.00,VWS V14.01,2013-06-28 23:54:00,
2013-06-28 18:59:00,89.3,76.0,29.79,West,262,0.0,1.0,65,0.00,,---,0.00,VWS V14.01,2013-06-28 23:59:00,
2013-06-28 19:00:00,89.3,76.0,29.79,West,262,0.0,1.0,65,0.00,,---,0.00,VWS V14.01,2013-06-29 00:00:00,
2013-06-28 19:04:00,89.2,75.9,29.79,West,261,0.0,0.0,65,0.00,,---,0.00,VWS V14.01,2013-06-29 00:04:00,
2013-06-28 19:09:00,89.0,75.7,29.79,West,260,0.0,0.0,65,0.00,,---,0.00,VWS V14.01,2013-06-29 00:09:00,
2013-06-28 19:14:00,88.7,75.4,29.78,West,260,0.0,0.0,65,0.00,,---,0.00,VWS V14.01,2013-06-29 00:14:00,
2013-06-28 19:15:00,88.7,75.4,29.78,West,260,0.0,1.0,65,0.00,,---,0.00,VWS V14.01,2013-06-29 00:15:00,
2013-06-28 19:20:00,88.6,75.8,29.78,West,260,0.0,0.0,66,0.00,,---,0.00,VWS V14.01,2013-06-29 00:20:00,
2013-06-28 19:25:00,88.5,76.2,29.78,West,260,0.0,0.0,67,0.00,,---,0.00,VWS V14.01,2013-06-29 00:25:00,
2013-06-28 19:30:00,88.2,76.3,29.78,West,260,0.0,0.0,68,0.00,,---,0.00,VWS V14.01,2013-06-29 00:30:00,
2013-06-28 19:35:00,87.9,76.0,29.78,WSW,254,0.0,1.0,68,0.00,,---,0.00,VWS V14.01,2013-06-29 00:35:00,
2013-06-28 19:40:00,87.5,76.1,29.78,WSW,254,0.0,1.0,69,0.00,,---,0.00,VWS V14.01,2013-06-29 00:40:00,
2013-06-28 19:45:00,87.4,76.0,29.76,WSW,254,0.0,0.0,69,0.00,,---,0.00,VWS V14.01,2013-06-29 00:45:00,
2013-06-28 19:50:00,87.1,76.1,29.76,WSW,254,0.0,0.0,70,0.00,,---,0.00,VWS V14.01,2013-06-29 00:50:00,
2013-06-28 19:55:00,86.9,75.9,29.76,WSW,254,0.0,0.0,70,0.00,,---,0.00,VWS V14.01,2013-06-29 00:55:00,
2013-06-28 20:00:00,86.6,75.7,29.76,WSW,254,0.0,0.0,70,0.00,,---,0.00,VWS V14.01,2013-06-29 01:00:00,
2013-06-28 20:05:00,86.2,75.7,29.76,WSW,254,0.0,0.0,71,0.00,,---,0.00,VWS V14.01,2013-06-29 01:05:00,
2013-06-28 20:11:00,85.9,75.4,29.76,WSW,254,0.0,0.0,71,0.00,,---,0.00,VWS V14.01,2013-06-29 01:11:00,
2013-06-28 20:15:00,85.8,75.7,29.76,WSW,254,0.0,0.0,72,0.00,,---,0.00,VWS V14.01,2013-06-29 01:15:00,
2013-06-28 20:16:00,85.7,75.6,29.76,WSW,254,0.0,0.0,72,0.00,,---,0.00,VWS V14.01,2013-06-29 01:16:00,
2013-06-28 20:21:00,85.7,75.6,29.76,WSW,254,0.0,0.0,72,0.00,,---,0.00,VWS V14.01,2013-06-29 01:21:00,
2013-06-28 20:26:00,85.5,75.4,29.76,WSW,250,0.0,0.0,72,0.00,,---,0.00,VWS V14.01,2013-06-29 01:26:00,
2013-06-28 20:30:00,85.3,75.7,29.76,WSW,250,0.0,1.0,73,0.00,,---,0.00,VWS V14.01,2013-06-29 01:30:00,
2013-06-28 20:31:00,85.2,75.6,29.76,WSW,250,0.0,0.0,73,0.00,,---,0.00,VWS V14.01,2013-06-29 01:31:00,
2013-06-28 20:36:00,85.0,75.4,29.76,WSW,250,0.0,0.0,73,0.00,,---,0.00,VWS V14.01,2013-06-29 01:36:00,
2013-06-28 20:41:00,84.8,75.2,29.76,WSW,250,0.0,0.0,73,0.00,,---,0.00,VWS V14.01,2013-06-29 01:41:00,
2013-06-28 20:42:00,84.8,75.6,29.76,WSW,250,0.0,0.0,74,0.00,,---,0.00,VWS V14.01,2013-06-29 01:42:00,
2013-06-28 20:45:00,84.6,75.4,29.77,WSW,250,0.0,0.0,74,0.00,,---,0.00,VWS V14.01,2013-06-29 01:45:00,
2013-06-28 20:47:00,84.1,75.7,29.77,WSW,250,0.0,0.0,76,0.00,,---,0.00,VWS V14.01,2013-06-29 01:47:00,
2013-06-28 20:53:00,83.4,76.2,29.77,WSW,250,0.0,0.0,79,0.00,,---,0.00,VWS V14.01,2013-06-29 01:53:00,
2013-06-28 20:58:00,82.8,76.0,29.77,WSW,250,0.0,0.0,80,0.00,,---,0.00,VWS V14.01,2013-06-29 01:58:00,
2013-06-28 21:00:00,82.6,75.8,29.78,WSW,250,0.0,0.0,80,0.00,,---,0.00,VWS V14.01,2013-06-29 02:00:00,
2013-06-28 21:03:00,82.1,76.1,29.78,WSW,250,0.0,0.0,82,0.00,,---,0.00,VWS V14.01,2013-06-29 02:03:00,
2013-06-28 21:08:00,81.7,76.0,29.78,WSW,250,0.0,0.0,83,0.00,,---,0.00,VWS V14.01,2013-06-29 02:08:00,
2013-06-28 21:13:00,81.3,75.7,29.78,WSW,250,0.0,0.0,83,0.00,,---,0.00,VWS V14.01,2013-06-29 02:13:00,
2013-06-28 21:15:00,81.2,75.6,29.78,WSW,250,0.0,0.0,83,0.00,,---,0.00,VWS V14.01,2013-06-29 02:15:00,
2013-06-28 21:18:00,81.0,75.3,29.78,WSW,250,0.0,0.0,83,0.00,,---,0.00,VWS V14.01,2013-06-29 02:18:00,
2013-06-28 21:23:00,80.8,75.5,29.78,WSW,250,0.0,0.0,84,0.00,,---,0.00,VWS V14.01,2013-06-29 02:23:00,
2013-06-28 21:28:00,80.7,75.8,29.78,WSW,250,0.0,0.0,85,0.00,,---,0.00,VWS V14.01,2013-06-29 02:28:00,
2013-06-28 21:30:00,80.7,75.8,29.78,WSW,250,0.0,0.0,85,0.00,,---,0.00,VWS V14.01,2013-06-29 02:30:00,
2013-06-28 21:33:00,80.5,75.6,29.78,WSW,250,0.0,0.0,85,0.00,,---,0.00,VWS V14.01,2013-06-29 02:33:00,
2013-06-28 21:38:00,80.3,75.7,29.78,WSW,250,0.0,0.0,86,0.00,,---,0.00,VWS V14.01,2013-06-29 02:38:00,
2013-06-28 21:43:00,80.0,75.4,29.79,WSW,250,0.0,0.0,86,0.00,,---,0.00,VWS V14.01,2013-06-29 02:43:00,
2013-06-28 21:45:00,80.0,75.8,29.79,WSW,250,0.0,0.0,87,0.00,,---,0.00,VWS V14.01,2013-06-29 02:45:00,
2013-06-28 21:48:00,79.8,75.6,29.79,WSW,250,0.0,0.0,87,0.00,,---,0.00,VWS V14.01,2013-06-29 02:48:00,
2013-06-28 21:54:00,79.4,75.5,29.79,WSW,250,0.0,0.0,88,0.00,,---,0.00,VWS V14.01,2013-06-29 02:54:00,
2013-06-28 21:59:00,79.3,75.8,29.79,WSW,250,0.0,0.0,89,0.00,,---,0.00,VWS V14.01,2013-06-29 02:59:00,
2013-06-28 22:00:00,79.3,75.8,29.79,WSW,250,0.0,0.0,89,0.00,,---,0.00,VWS V14.01,2013-06-29 03:00:00,
2013-06-28 22:04:00,79.1,75.2,29.79,WSW,250,0.0,0.0,88,0.00,,---,0.00,VWS V14.01,2013-06-29 03:04:00,
2013-06-28 22:09:00,79.1,75.2,29.79,WSW,250,0.0,0.0,88,0.00,,---,0.00,VWS V14.01,2013-06-29 03:09:00,
2013-06-28 22:14:00,78.9,75.4,29.80,WSW,250,0.0,0.0,89,0.00,,---,0.00,VWS V14.01,2013-06-29 03:14:00,
2013-06-28 22:15:00,78.9,75.4,29.80,WSW,250,0.0,0.0,89,0.00,,---,0.00,VWS V14.01,2013-06-29 03:15:00,
2013-06-28 22:19:00,78.8,75.3,29.80,WSW,250,0.0,0.0,89,0.00,,---,0.00,VWS V14.01,2013-06-29 03:19:00,
2013-06-28 22:24:00,78.6,75.4,29.80,WSW,250,0.0,0.0,90,0.00,,---,0.00,VWS V14.01,2013-06-29 03:24:00,
2013-06-28 22:29:00,78.4,75.2,29.82,WSW,250,0.0,0.0,90,0.00,,---,0.00,VWS V14.01,2013-06-29 03:29:00,
2013-06-28 22:30:00,78.4,75.2,29.82,WSW,250,0.0,0.0,90,0.00,,---,0.00,VWS V14.01,2013-06-29 03:30:00,
2013-06-28 22:34:00,78.3,75.5,29.82,WSW,250,0.0,0.0,91,0.00,,---,0.00,VWS V14.01,2013-06-29 03:34:00,
2013-06-28 22:39:00,78.2,75.4,29.82,WSW,250,0.0,0.0,91,0.00,,---,0.00,VWS V14.01,2013-06-29 03:39:00,
2013-06-28 22:44:00,78.2,75.4,29.82,WSW,250,0.0,0.0,91,0.00,,---,0.00,VWS V14.01,2013-06-29 03:44:00,
2013-06-28 22:45:00,78.2,75.4,29.82,WSW,250,0.0,0.0,91,0.00,,---,0.00,VWS V14.01,2013-06-29 03:45:00,
2013-06-28 22:50:00,78.2,75.4,29.82,WSW,250,0.0,0.0,91,0.00,,---,0.00,VWS V14.01,2013-06-29 03:50:00,
2013-06-28 22:55:00,78.2,75.4,29.82,WSW,250,0.0,0.0,91,0.00,,---,0.00,VWS V14.01,2013-06-29 03:55:00,
2013-06-28 23:00:00,78.1,75.3,29.81,WSW,250,0.0,0.0,91,0.00,,---,0.00,VWS V14.01,2013-06-29 04:00:00,
2013-06-28 23:01:00,78.0,75.2,29.81,WSW,250,0.0,0.0,91,0.00,,---,0.00,VWS V14.01,2013-06-29 04:01:00,
2013-06-28 23:02:00,78.0,75.2,29.81,WSW,250,0.0,0.0,91,0.00,,---,0.00,VWS V14.01,2013-06-29 04:02:00,
2013-06-28 23:08:00,77.9,75.1,29.81,WSW,250,0.0,0.0,91,0.00,,---,0.00,VWS V14.01,2013-06-29 04:08:00,
2013-06-28 23:13:00,77.8,75.3,29.81,WSW,250,0.0,0.0,92,0.00,,---,0.00,VWS V14.01,2013-06-29 04:13:00,
2013-06-28 23:15:00,77.8,75.3,29.82,WSW,250,0.0,0.0,92,0.00,,---,0.00,VWS V14.01,2013-06-29 04:15:00,
2013-06-28 23:18:00,77.6,75.1,29.82,WSW,250,0.0,0.0,92,0.00,,---,0.00,VWS V14.01,2013-06-29 04:18:00,
2013-06-28 23:23:00,77.6,75.1,29.82,WSW,250,0.0,0.0,92,0.00,,---,0.00,VWS V14.01,2013-06-29 04:23:00,
2013-06-28 23:28:00,77.6,75.1,29.82,WSW,250,0.0,0.0,92,0.00,,---,0.00,VWS V14.01,2013-06-29 04:28:00,
2013-06-28 23:30:00,77.6,75.1,29.81,WSW,250,0.0,0.0,92,0.00,,---,0.00,VWS V14.01,2013-06-29 04:30:00,
2013-06-28 23:33:00,77.5,75.0,29.81,WSW,250,0.0,0.0,92,0.00,,---,0.00,VWS V14.01,2013-06-29 04:33:00,
2013-06-28 23:38:00,77.5,75.3,29.81,WSW,250,0.0,0.0,93,0.00,,---,0.00,VWS V14.01,2013-06-29 04:38:00,
2013-06-28 23:43:00,77.4,75.2,29.81,WSW,250,0.0,0.0,93,0.00,,---,0.00,VWS V14.01,2013-06-29 04:43:00,
2013-06-28 23:45:00,77.4,75.2,29.81,WSW,250,0.0,0.0,93,0.00,,---,0.00,VWS V14.01,2013-06-29 04:45:00,
2013-06-28 23:48:00,77.4,75.2,29.81,WSW,250,0.0,0.0,93,0.00,,---,0.00,VWS V14.01,2013-06-29 04:48:00,
2013-06-28 23:53:00,77.3,75.1,29.81,WSW,250,0.0,0.0,93,0.00,,---,0.00,VWS V14.01,2013-06-29 04:53:00,
2013-06-28 23:58:00,77.5,75.3,29.80,WSW,250,0.0,0.0,93,0.00,,---,0.00,VWS V14.01,2013-06-29 04:58:00,